Location: Biltmore Gardens
(41.6070°N, 83.4666°W)
Time: 14:18:45
(UTC+00:00)

Cosmos 1624 Rocket - Pass Details

Date: 14 July 2020
Orbit: 758 x 783 km, 74.0° (Epoch: 04 August)

Event Time Altitude Azimuth Distance (km) Brightness Sun altitude
Rises 03:24:03 0° 338° (NNW) 3,234 8.8 -19.4°
Reaches altitude 10° 03:26:26 10° 337° (NNW) 2,301 7.7 -19.6°
Maximum altitude 03:31:38 74° 253° (WSW) 790 4.0 -20.2°
Enters shadow 03:33:33 39° 177° (S) 1,123 4.4 -20.3°
